Flag for France Weather past 2 weeks in Saint-Étienne, France

Now
90 °F

Passing clouds.


Feels Like: 88 °F
Forecast: 59 / 94 °F
Wind: 5 mph from North

Location: St-Etienne Boutheon

Current Time: Jun 30, 2015 at 3:15:47 PM

Latest Report: Jun 30, 2015 at 2:30 PM


Visibility: N/A

Pressure: 30.07 "Hg

Humidity: 33%

Dew point: 57 °F

Location of Saint-ÉtienneLocation

Historic Weather in Saint-Étienne — Graph

°F

Saint-Étienne temperature yesterday

Maximum temperature yesterday: 88 °F (at 5:30 PM)
Minimum temperature yesterday: 57 °F (at 5:00 AM)
Average temperature yesterday: 73 °F

Past Weeks' High & Low Weather Summary

 TemperatureHumidityPressure
High90 °F (Jun 30, 2:00 PM)100% (Jun 16, 8:00 AM)30.24 "Hg (Jun 16, 8:00 AM)
Low46 °F (Jun 24, 5:30 AM)25% (Jun 22, 5:30 PM)29.86 "Hg (Jun 22, 6:30 PM)
Average67 °F62%30.13 "Hg
* Reported Jun 15 2:00 PM — Jun 30 2:00 PM, Saint-Étienne, Weather by CustomWeather, © 2015

Note: Actual official high and low records may vary slightly from our data, if they occured in-between our weather recording intervals... More about our weather records

Advertising

Saint-Étienne weather history for previous 24 hours

 ConditionsComfort  
Time TempWeatherWind HumidityBarometerVisibility
2:00 PM
Tue, Jun 30
90 °FPassing clouds.5 mph33%30.07 "HgN/A
1:30 PM88 °FPassing clouds.5 mph35%30.09 "HgN/A
1:00 PM88 °FPassing clouds.3 mph38%30.09 "HgN/A
12:30 PM86 °FPassing clouds.3 mph40%30.09 "HgN/A
12:00 PM84 °FSunny.2 mph45%30.09 "Hg10 mi
11:30 AM82 °FSunny.2 mph45%30.09 "Hg10 mi
11:00 AM82 °FSunny.3 mph42%30.12 "Hg10 mi
10:30 AM79 °FPassing clouds.3 mph48%30.12 "HgN/A
10:00 AM77 °FSunny.2 mph47%30.12 "Hg10 mi
9:30 AM75 °FSunny.2 mph50%30.12 "Hg10 mi
9:00 AM72 °FSunny.3 mph61%30.12 "Hg10 mi
8:30 AM70 °FPassing clouds.3 mph60%30.12 "HgN/A
8:00 AM68 °FSunny.5 mph64%30.12 "Hg10 mi
7:30 AM66 °FSunny.2 mph68%30.12 "Hg10 mi
7:00 AM61 °FSunny.No wind83%30.12 "Hg10 mi
6:00 AM61 °FClear.No wind77%30.12 "Hg10 mi
5:00 AM63 °FClear.3 mph73%30.12 "Hg10 mi
4:30 AM63 °FClear.No wind73%30.12 "Hg10 mi
4:00 AM63 °FClear.No wind73%30.12 "Hg10 mi
3:30 AM63 °FClear.3 mph73%30.15 "Hg10 mi
3:00 AM63 °FClear.1 mph77%30.15 "Hg10 mi
2:30 AM64 °FClear.No wind73%30.15 "Hg10 mi
2:00 AM64 °FClear.No wind73%30.15 "Hg10 mi
1:30 AM66 °FClear.No wind68%30.15 "Hg10 mi
1:00 AM66 °FClear.No wind73%30.18 "Hg10 mi
12:30 AM68 °FClear.No wind64%30.18 "Hg10 mi
12:00 AM70 °FClear.No wind64%30.18 "Hg10 mi
11:30 PM
Mon, Jun 29
73 °FClear.No wind53%30.18 "Hg10 mi
11:00 PM75 °FClear.3 mph50%30.18 "Hg10 mi
10:30 PM77 °FSunny.No wind47%30.15 "Hg10 mi
10:00 PM79 °FClear.3 mph45%30.15 "Hg4 mi
9:30 PM81 °FPassing clouds.5 mph42%30.15 "HgN/A
9:00 PM82 °FPassing clouds.3 mph40%30.15 "HgN/A
8:30 PM84 °FPassing clouds.5 mph37%30.15 "HgN/A
8:00 PM86 °FPassing clouds.5 mph33%30.12 "HgN/A
7:30 PM86 °FPassing clouds.6 mph33%30.12 "HgN/A
7:00 PM86 °FPassing clouds.6 mph33%30.12 "HgN/A
6:30 PM86 °FSunny.5 mph35%30.15 "Hg10 mi
6:00 PM86 °FScattered clouds.5 mph35%30.15 "HgN/A
5:30 PM88 °FScattered clouds.5 mph33%30.15 "HgN/A
5:00 PM86 °FScattered clouds.2 mph33%30.15 "HgN/A
4:30 PM86 °FScattered clouds.3 mph33%30.15 "HgN/A
4:00 PM86 °FPartly sunny.6 mph35%30.18 "HgN/A
3:30 PM84 °FPartly sunny.3 mph37%30.18 "HgN/A
3:00 PM84 °FPartly sunny.6 mph37%30.18 "HgN/A
Weather by CustomWeather, © 2015

See weather overviewHow to use our weather pages